{"data":{"norad_id":67821,"intl_designator":"2026-033A","name":"STARLINK-36644","alt_names":[],"object_type":"PAYLOAD","status":"ACTIVE","operator":null,"country":"US","launch_date":"2026-02-16","launch_site_code":"AFETR","launch_vehicle":null,"mission":null,"orbit_class":"UNKNOWN","rcs_meters":null,"size_class":null,"mass_kg":null,"dimensions":null,"purposes":["comms"],"wikipedia_slug":null,"has_3d_model":false,"image_url":null,"decayed_at":null,"tle_current":{"epoch":"2026-09-19T16:23:27.471840Z","epoch_age_seconds":137122,"freshness":"FRESH","line1":"1 67821U 26033A   26262.68295685  .00020228  00000+0  74126-3 0  9991","line2":"2 67821  43.0035 251.4103 0003715 272.5569  87.4857 15.27633978 34343","mean_motion":15.27633978,"eccentricity":0.0003715,"inclination_deg":43.0035,"raan_deg":251.4103,"arg_perigee_deg":272.5569,"mean_anomaly_deg":87.4857,"bstar":0.00074126,"rev_number":3434,"period_min":94.263417856499,"perigee_km":480.33860065735,"apogee_km":485.43634183949,"semimajor_km":6861.0244712484,"source":"CELESTRAK","updated_at":"2026-09-20T09:00:43.666898Z"}}}